Socorro, NM

10:41 AM MDT on March 23, 2017 (GMT -0600)
Socorro Municipal

Weather History for KONM - January, 2014

Change the Weather History Date:

Saturday, January 25, 2014

  Actual Average Record
Temperature  
Mean Temperature 39 °F -  
Max Temperature 52 °F 55 °F 63 °F (2013)
Min Temperature 26 °F 21 °F 18 °F (2011)
Degree Days  
Heating Degree Days 26    
Moisture  
Dew Point 10 °F    
Average Humidity 37    
Maximum Humidity 57    
Minimum Humidity 16    
Precipitation  
Precipitation 0.00 in - - ()
Sea Level Pressure  
Sea Level Pressure 30.25 in    
Wind  
Wind Speed 5 mph (NW)    
Max Wind Speed 10 mph    
Max Gust Speed -    
Visibility 10 miles    
Events      
Averages and records for this station are not official NWS values.
T = Trace of Precipitation, MM = Missing Value Source: NWS Daily Summary

Daily Weather History Graph

Daily Weather History Graph

Search for Another Location

Airport or City:

Trip Planner

Search our weather history database for the weather conditions in past years. The results will help you decide how hot, cold, wet, or windy it might be!

Date:

Astronomy

Jan. 25, 2014 Rise Set
Actual Time 7:08 AM MST 5:31 PM MST
Civil Twilight 6:42 AM MST 5:57 PM MST
Nautical Twilight 6:12 AM MST 6:28 PM MST
Astronomical Twilight 5:42 AM MST 6:57 PM MST
Moon 1:45 AM MST (1/25) 12:33 PM MST (1/25)
Length of Visible Light 11h 15m
Length of Day
10h 22m
Waning Crescent, 33% of the Moon is Illuminated
Jan 25
Waning Crescent
Jan 30
New
Feb 6
First Quarter
Feb 14
Full
Feb 22
Last Quarter

Hourly Weather History & Observations

Time (MST) Temp. Windchill Dew Point Humidity Pressure Visibility Wind Dir Wind Speed Gust Speed Precip Events Conditions
12:15 AM 26.2 °F 20.7 °F 12.7 °F 57% 30.39 in 10.0 mi NW 4.6 mph - N/A   Clear
12:35 AM 27.9 °F 21.5 °F 13.3 °F 54% 30.39 in 10.0 mi NW 5.8 mph - N/A   Clear
12:55 AM 27.7 °F 21.3 °F 13.1 °F 54% 30.39 in 10.0 mi NW 5.8 mph - N/A   Clear
1:15 AM 29.3 °F 22.3 °F 13.5 °F 52% 30.38 in 10.0 mi NW 6.9 mph - N/A   Clear
1:35 AM 28.8 °F 23.7 °F 13.3 °F 52% 30.38 in 10.0 mi NW 4.6 mph - N/A   Clear
1:55 AM 28.2 °F 23.1 °F 13.1 °F 53% 30.38 in 10.0 mi WNW 4.6 mph - N/A   Clear
2:15 AM 26.6 °F 21.2 °F 12.7 °F 56% 30.37 in 10.0 mi WNW 4.6 mph - N/A   Clear
2:35 AM 26.6 °F 21.2 °F 12.9 °F 56% 30.37 in 10.0 mi WNW 4.6 mph - N/A   Clear
2:55 AM 28.2 °F 24.4 °F 13.1 °F 53% 30.37 in 10.0 mi WNW 3.5 mph - N/A   Clear
3:15 AM 28.4 °F 20.4 °F 13.1 °F 53% 30.37 in 10.0 mi NW 8.1 mph - N/A   Clear
3:35 AM 28.8 °F 21.7 °F 13.1 °F 52% 30.36 in 10.0 mi NW 6.9 mph - N/A   Clear
3:55 AM 28.0 °F 22.8 °F 12.7 °F 53% 30.35 in 10.0 mi NNW 4.6 mph - N/A   Clear
4:15 AM 27.0 °F 21.6 °F 12.7 °F 55% 30.35 in 10.0 mi NNW 4.6 mph - N/A   Clear
4:35 AM 27.1 °F 19.7 °F 12.7 °F 55% 30.34 in 10.0 mi NNW 6.9 mph - N/A   Clear
4:55 AM 27.5 °F 20.2 °F 12.2 °F 53% 30.33 in 10.0 mi NNW 6.9 mph - N/A   Clear
5:15 AM 27.5 °F 19.3 °F 12.2 °F 53% 30.33 in 10.0 mi NNW 8.1 mph - N/A   Clear
5:35 AM 26.6 °F 20.0 °F 12.2 °F 55% 30.33 in 10.0 mi NW 5.8 mph - N/A   Clear
5:55 AM 26.6 °F 18.2 °F 12.2 °F 55% 30.33 in 10.0 mi WNW 8.1 mph - N/A   Clear
6:15 AM 27.0 °F 19.5 °F 12.0 °F 53% 30.33 in 10.0 mi WNW 6.9 mph - N/A   Clear
6:35 AM 27.0 °F 18.7 °F 12.0 °F 53% 30.33 in 10.0 mi NW 8.1 mph - N/A   Clear
6:55 AM 27.0 °F 19.5 °F 11.8 °F 53% 30.33 in 10.0 mi WNW 6.9 mph - N/A   Clear
7:15 AM 27.0 °F 18.0 °F 11.7 °F 53% 30.33 in 10.0 mi NW 9.2 mph - N/A   Clear
7:35 AM 27.5 °F 20.2 °F 11.8 °F 52% 30.33 in 10.0 mi NW 6.9 mph - N/A   Clear
7:55 AM 28.0 °F 20.8 °F 11.8 °F 51% 30.34 in 10.0 mi NW 6.9 mph - N/A   Scattered Clouds
8:15 AM 29.1 °F 22.1 °F 12.2 °F 49% 30.33 in 10.0 mi NNW 6.9 mph - N/A   Clear
8:35 AM 30.2 °F 22.6 °F 12.2 °F 47% 30.34 in 10.0 mi NW 8.1 mph - N/A   Clear
8:55 AM 30.9 °F 26.2 °F 12.2 °F 46% 30.34 in 10.0 mi NW 4.6 mph - N/A   Clear
9:15 AM 32.4 °F 26.9 °F 12.2 °F 43% 30.34 in 10.0 mi NNW 5.8 mph - N/A   Clear
9:35 AM 34.0 °F 28.8 °F 12.0 °F 40% 30.34 in 10.0 mi NNW 5.8 mph - N/A   Scattered Clouds
9:55 AM 36.0 °F 30.3 °F 11.3 °F 36% 30.34 in 10.0 mi North 6.9 mph - N/A   Scattered Clouds
10:15 AM 37.6 °F 30.5 °F 11.3 °F 34% 30.33 in 10.0 mi North 10.4 mph - N/A   Clear
10:35 AM 38.3 °F 33.2 °F 11.1 °F 33% 30.33 in 10.0 mi North 6.9 mph - N/A   Clear
10:55 AM 38.3 °F 33.9 °F 11.3 °F 33% 30.33 in 10.0 mi North 5.8 mph - N/A   Clear
11:15 AM 39.7 °F 34.3 °F 11.3 °F 31% 30.32 in 10.0 mi North 8.1 mph - N/A   Clear
11:35 AM 41.0 °F 36.4 °F 11.3 °F 30% 30.30 in 10.0 mi North 6.9 mph - N/A   Clear
11:55 AM 43.0 °F 38.8 °F 11.8 °F 28% 30.29 in 10.0 mi North 6.9 mph - N/A   Clear
12:15 PM 44.6 °F 41.4 °F 11.7 °F 26% 30.27 in 10.0 mi North 5.8 mph - N/A   Scattered Clouds
12:35 PM 46.0 °F 41.9 °F 10.8 °F 24% 30.26 in 10.0 mi North 8.1 mph - N/A   Mostly Cloudy
12:55 PM 47.7 °F - 10.4 °F 22% 30.23 in 10.0 mi North 9.2 mph - N/A   Overcast
1:15 PM 47.8 °F - 9.9 °F 22% 30.22 in 10.0 mi North 6.9 mph - N/A   Overcast
1:35 PM 48.2 °F - 9.3 °F 21% 30.21 in 10.0 mi North 6.9 mph - N/A   Overcast
1:55 PM 49.8 °F - 9.1 °F 19% 30.19 in 10.0 mi North 8.1 mph - N/A   Scattered Clouds
2:15 PM 50.4 °F - 9.0 °F 19% 30.18 in 10.0 mi North 6.9 mph - N/A   Clear
2:35 PM 50.9 °F - 8.8 °F 18% 30.17 in 10.0 mi North 8.1 mph - N/A   Clear
2:55 PM 52.7 °F - 8.1 °F 17% 30.17 in 10.0 mi North 3.5 mph - N/A   Clear
3:15 PM 51.1 °F - 7.7 °F 17% 30.17 in 10.0 mi NNW 5.8 mph - N/A   Scattered Clouds
3:35 PM 52.7 °F - 7.2 °F 16% 30.17 in 10.0 mi NNW 3.5 mph - N/A   Scattered Clouds
3:55 PM 52.0 °F - 5.9 °F 16% 30.16 in 10.0 mi NW 5.8 mph - N/A   Clear
4:15 PM 51.1 °F - 5.9 °F 16% 30.15 in 10.0 mi Calm Calm - N/A   Clear
4:35 PM 51.1 °F - 6.3 °F 16% 30.15 in 10.0 mi Calm Calm - N/A   Clear
4:55 PM 51.4 °F - 5.5 °F 16% 30.15 in 10.0 mi Calm Calm - N/A   Clear
5:15 PM 49.8 °F - 5.7 °F 17% 30.14 in 10.0 mi Calm Calm - N/A   Mostly Cloudy
5:35 PM 44.2 °F - 7.0 °F 22% 30.14 in 10.0 mi Calm Calm - N/A   Mostly Cloudy
5:55 PM 41.2 °F - 7.7 °F 25% 30.15 in 10.0 mi Calm Calm - N/A   Overcast
6:15 PM 41.2 °F - 8.4 °F 26% 30.15 in 10.0 mi Calm Calm - N/A   Overcast
6:35 PM 40.5 °F - 8.2 °F 27% 30.14 in 10.0 mi Calm Calm - N/A   Overcast
6:55 PM 38.3 °F - 8.4 °F 29% 30.13 in 10.0 mi Calm Calm - N/A   Scattered Clouds
7:15 PM 39.0 °F - 8.6 °F 29% 30.13 in 10.0 mi Calm Calm - N/A   Mostly Cloudy
8:15 PM 34.9 °F 27.7 °F 8.1 °F 33% 30.13 in 10.0 mi West 9.2 mph - N/A   Clear
8:35 PM 34.2 °F 29.0 °F 7.3 °F 33% 30.13 in 10.0 mi West 5.8 mph - N/A   Clear
8:55 PM 34.2 °F 30.0 °F 7.3 °F 33% 30.12 in 10.0 mi WSW 4.6 mph - N/A   Clear
9:15 PM 33.1 °F 30.0 °F 6.8 °F 33% 30.12 in 10.0 mi WSW 3.5 mph - N/A   Clear
9:35 PM 32.0 °F 28.7 °F 6.6 °F 34% 30.12 in 10.0 mi West 3.5 mph - N/A   Clear
9:55 PM 31.1 °F 26.4 °F 7.2 °F 37% 30.12 in 10.0 mi WNW 4.6 mph - N/A   Clear
10:15 PM 30.4 °F 26.9 °F 6.8 °F 37% 30.12 in 10.0 mi WSW 3.5 mph - N/A   Clear
10:35 PM 30.0 °F - 6.6 °F 37% 30.12 in 10.0 mi Calm Calm - N/A   Clear
10:55 PM 29.5 °F 25.9 °F 6.3 °F 37% 30.12 in 10.0 mi NW 3.5 mph - N/A   Clear
11:15 PM 28.2 °F 23.1 °F 6.4 °F 40% 30.12 in 10.0 mi WNW 4.6 mph - N/A   Clear
11:35 PM 29.3 °F 25.6 °F 5.5 °F 37% 30.11 in 10.0 mi West 3.5 mph - N/A   Clear
11:55 PM 28.6 °F - 5.0 °F 37% 30.11 in 10.0 mi Calm Calm - N/A   Clear